Flag for U.S.A. Weather past 2 weeks in Moreno Valley, California, U.S.A.

Now
63 °F

Sunny.


Feels Like: 63 °F
Forecast: 53 / 83 °F
Wind: 1 mph from North

Location: Riverside / March Air Force Base


UV Index: 5 (Moderate)

Visibility: 10 mi


Pressure: 30.04 "Hg

Humidity: 69%

Dew point: 53 °F

Location of Moreno ValleyLocation

Historic Weather in Moreno Valley

°F

Moreno Valley temperature yesterday

Maximum temperature yesterday: 79 °F (at 2:58 PM)
Minimum temperature yesterday: 48 °F (at 5:58 AM)
Average temperature yesterday: 63 °F

Past Weeks' High & Low Weather Summary

 TemperatureHumidityPressure
High91 °F (Apr 9, 3:58 PM)96% (Apr 17, 6:58 AM)30.13 "Hg (Apr 17, 6:58 AM)
Low39 °F (Apr 6, 5:58 AM)5% (Apr 9, 12:58 PM)29.75 "Hg (Apr 16, 3:58 PM)
Average63 °F50%29.95 "Hg
* Reported Apr 5 7:58 AM — Apr 20 7:58 AM, Moreno Valley, Weather by CustomWeather, © 2014

Note: Actual official high and low records may vary slightly from our data, if they occured in-between our weather recording intervals... More about our weather records

Advertising

Historic Weather Conditions — Data for Previous 24 hours

 ConditionsComfort  
Time TempWeatherWind HumidityBarometerVisibility
7:58 AM
Apr 20
58 °FSunny.1 mph77%30.05 "Hg10 mi
6:58 AM51 °FClear.No wind83%30.04 "Hg10 mi
5:58 AM49 °FClear.1 mph85%30.03 "Hg10 mi
4:58 AM49 °FClear.No wind86%30.02 "Hg10 mi
3:58 AM50 °FClear.No wind89%30.02 "Hg10 mi
2:58 AM53 °FClear.No wind85%30.01 "Hg10 mi
1:58 AM53 °FClear.No wind82%30.03 "Hg10 mi
12:58 AM53 °FClear.2 mph86%30.04 "Hg10 mi
11:58 PM
Apr 19
58 °FClear.No wind83%30.03 "Hg10 mi
10:58 PM58 °FClear.6 mph80%30.04 "Hg10 mi
9:58 PM60 °FClear.6 mph72%30.03 "Hg10 mi
8:58 PM63 °FClear.8 mph67%30.02 "Hg10 mi
7:58 PM66 °FPassing clouds.10 mph59%29.98 "Hg10 mi
6:58 PM70 °FSunny.14 mph47%29.96 "Hg10 mi
5:58 PM75 °FSunny.15 mph41%29.95 "Hg10 mi
4:58 PM77 °FPassing clouds.13 mph38%29.94 "Hg10 mi
3:58 PM78 °FSunny.9 mph34%29.94 "Hg10 mi
2:58 PM79 °FSunny.7 mph34%29.95 "Hg10 mi
1:58 PM76 °FBroken clouds.10 mph39%29.96 "Hg10 mi
12:58 PM74 °FBroken clouds.12 mph45%29.97 "Hg10 mi
11:58 AM73 °FPartly sunny.12 mph46%29.97 "Hg10 mi
10:58 AM68 °FSunny.2 mph56%29.98 "Hg10 mi
9:58 AM64 °FSunny.3 mph65%29.98 "Hg10 mi
Weather by CustomWeather, © 2014

See weather overview